Location: Sternwarte ZA, Rosenfeld-Brittheim
(48.2889°N, 8.6789°E)
Time: 07:43:28
(UTC+02:00)

ISS - Pass Details

Date: 19 May 2021
Orbit: 417 x 422 km, 51.6° (Epoch: 18 June)

Event Time Altitude Azimuth Distance (km) Brightness Sun altitude
Rises 22:04:11 0° 252° (WSW) 2,359 0.5 -8.8°
Reaches altitude 10° 22:06:17 10° 254° (WSW) 1,498 -0.5 -9.0°
Maximum altitude 22:09:39 76° 340° (NNW) 437 -3.6 -9.4°
Drops below altitude 10° 22:13:02 10° 67° (ENE) 1,506 -1.2 -9.8°
Sets 22:15:08 0° 69° (ENE) 2,373 -0.2 -10.0°
